[[{"header":{"parameterUnit":"m.s-1","parameterCategory":1,"la1":30.2991,"la2":30.254,"lo1":-89.0895,"lo2":-89.0444,"dy":0.0017,"dx":0.0017,"nx":28,"ny":28,"refTime":"2025-05-27T21:00:00:Z","depth":0,"parameterNumber":2,"parameterNumberName":"U-component_of_WINDS"},"data":[0,0,0,0,0,0,0,0,0,0,0,0,0,0,0,0,0,0,0,0,0,0,0,0,0,0,0,0,0,0,0,0,0,0,0,0,0,0,0,0,0,0,0,0,0,0,0,0,0,0,0,0,0,0,0,0,0,0,2.332,2.3322,0,2.3538,2.3541,2.3543,2.3628,2.3627,2.3627,2.3626,2.3851,2.3858,2.3864,0,0,0,0,0,0,0,0,0,0,0,0,0,2.2976,2.2982,2.332,2.3322,2.3325,2.3538,2.3541,2.3544,2.3628,2.3627,2.3626,2.3626,2.3849,2.3857,2.3865,0,0,0,0,0,0,0,0,0,0,0,0,0,2.3153,2.2984,2.3319,2.3393,2.3401,2.3537,2.3541,2.3545,2.3628,2.3627,2.3626,2.3625,2.3846,2.3856,2.3866,2.3945,0,0,2.3896,2.39,0,0,0,0,0,0,0,0,2.3143,2.3165,2.3379,2.3388,2.3398,2.3555,2.3502,2.3679,2.3628,2.3542,2.3626,2.3625,2.3753,2.3771,2.3814,2.3956,2.3965,2.3897,2.3903,2.3907,2.391,0,0,0,0,0,0,0,2.313,2.3156,2.3406,2.3382,2.3394,2.3415,2.3439,2.3536,2.365,2.3549,2.3556,2.3581,2.3758,2.3804,2.382,2.3969,2.3896,2.3905,2.3911,2.3915,2.4185,2.4187,0,0,0,0,0,0,2.3106,2.3146,2.3399,2.3413,2.3265,2.3422,2.3449,2.3505,2.3649,2.3671,2.3581,2.3584,2.3788,2.3808,2.3828,2.393,2.3907,2.3916,2.3922,2.4184,2.4186,2.4187,0,0,0,0,0,0,2.3098,2.3128,2.3391,2.3281,2.3316,2.3429,2.3492,2.351,2.3556,2.3674,2.3694,2.3607,2.3788,2.3814,2.3915,2.3939,2.3921,2.393,2.4183,2.4185,2.4186,2.4135,0,0,0,0,0,0,2.3088,2.3124,2.3156,2.3281,2.3322,2.3474,2.3493,2.3515,2.3573,2.3578,2.3703,2.3723,2.3789,2.39,2.3925,2.3952,2.3937,2.4181,2.4184,2.4186,2.4135,2.4135,2.4135,0,0,0,0,0,2.3075,2.3133,2.3157,2.3187,2.3363,2.3475,2.3498,2.3573,2.3574,2.3607,2.3682,2.3719,2.3932,2.391,2.3938,2.3969,2.418,2.4183,2.4186,2.4135,2.4135,2.4135,0,0,0,0,0,0,2.3008,2.3151,2.3179,2.3279,2.3364,2.3489,2.3532,2.357,2.3657,2.3658,2.3747,2.3775,2.3868,2.3929,2.3901,2.4053,2.4059,2.4067,2.401,2.4011,2.4011,2.3995,2.3945,0,0,0,0,0,2.3005,2.3083,2.3204,2.328,2.3321,2.3419,2.3471,2.352,2.3612,2.3649,2.3732,2.382,2.3907,2.3962,2.4049,2.4144,2.4172,2.4179,2.4179,2.4178,2.4185,2.4239,2.4243,2.4196,2.4196,2.4196,0,0,2.2999,2.3087,2.3131,2.3269,2.3341,2.342,2.3449,2.3532,2.3592,2.3662,2.3762,2.3825,2.393,2.4027,2.4075,2.4081,2.4204,2.4182,2.418,2.4188,2.4242,2.4246,2.425,2.4198,2.4198,2.4198,0,0,2.3029,2.3103,2.3175,2.3246,2.3354,2.3418,2.3435,2.3554,2.3599,2.3701,2.3754,2.3827,2.3975,2.4046,2.4102,2.4157,2.4195,2.4183,2.4182,2.4234,2.4238,2.4241,2.4261,2.4267,2.4189,2.4189,2.4189,0,2.3009,2.313,2.3207,2.3287,2.3346,2.3412,2.3485,2.355,2.3681,2.372,2.3725,2.3911,2.3986,2.4101,2.4114,2.4157,2.4179,2.417,2.4231,2.4235,2.424,2.426,2.4267,2.4187,2.4187,2.4187,2.4188,0,2.31,2.3183,2.3228,2.3352,2.3416,2.3492,2.358,2.3635,2.3679,2.3742,2.3844,2.3936,2.4042,2.4073,2.4117,2.4194,2.4194,2.4213,2.4221,2.4241,2.4261,2.4269,2.4184,2.4185,2.4185,2.4186,0,0,2.3096,2.3259,2.3275,2.3331,2.3454,2.352,2.3599,2.3701,2.3747,2.3834,2.3903,2.4025,2.4043,2.4106,2.4159,2.4204,2.4241,2.4218,2.4222,2.4219,2.4331,2.4316,2.4324,2.4266,2.4267,2.4269,2.4322,0,2.3143,2.3286,2.3357,2.3469,2.3547,2.3609,2.3678,2.376,2.3821,2.3896,2.3964,2.4049,2.4067,2.4105,2.4152,2.4226,2.4265,2.4223,2.433,2.4333,2.4303,2.4334,2.4319,2.4365,2.4331,2.4332,2.4333,0,2.3217,2.3303,2.3423,2.3536,2.3571,2.3631,2.373,2.3801,2.3896,2.3937,2.4006,2.4056,2.4141,2.4141,2.4259,2.4229,2.4277,2.4319,2.4323,2.4336,2.4335,2.4349,2.4382,2.4389,2.4346,2.4345,2.4344,0,2.3202,2.3348,2.3438,2.3485,2.3619,2.3659,2.3717,2.3811,2.3867,2.3954,2.3991,2.4086,2.4139,2.4211,2.4285,2.4279,2.4396,2.4402,2.4432,2.443,2.4455,2.4453,2.4497,2.4484,2.4484,2.4484,2.4484,0,2.3248,2.3319,2.3433,2.3489,2.357,2.365,2.3728,2.379,2.3873,2.3942,2.4001,2.4065,2.4159,2.4234,2.4292,2.438,2.4404,2.4439,2.4454,2.4434,2.443,2.4468,2.4466,2.4486,2.4486,2.4485,2.4485,0,2.3245,2.3325,2.3428,2.3545,2.3576,2.3631,2.3732,2.3788,2.3851,2.3937,2.3962,2.4061,2.4152,2.4233,2.4354,2.4393,2.4483,2.4502,2.4451,2.4459,2.4485,2.4481,2.4555,2.4569,2.4546,2.4546,2.4546,0,2.327,2.3326,2.3449,2.3499,2.3555,2.3635,2.3693,2.3773,2.3831,2.3942,2.3984,2.4079,2.416,2.4302,2.4385,2.4477,2.4499,2.4518,2.4513,2.4491,2.4499,2.4495,2.4501,2.4518,2.4517,2.4517,2.4517,0,2.3304,2.334,2.3421,2.3515,2.3582,2.3661,2.3741,2.3778,2.3873,2.3935,2.4028,2.409,2.4213,2.4306,2.4407,2.4467,2.4508,2.4518,2.453,2.4511,2.4479,2.4496,2.445,2.4516,2.4516,2.4516,2.4516,2.4516,2.3317,2.3369,2.3463,2.3551,2.3619,2.3692,2.375,2.382,2.3899,2.4005,2.4047,2.4142,2.4234,2.4374,2.4433,2.4508,2.4515,2.4532,2.4537,2.454,2.4536,2.4466,2.4526,2.4526,2.4527,2.4527,2.4527,0,2.3355,2.3418,2.3498,2.3607,2.3676,2.3707,2.3797,2.3852,2.3935,2.4017,2.4094,2.42,2.4291,2.438,2.4475,2.4518,2.4539,2.454,2.4538,2.4551,2.4524,2.4505,2.4521,2.4521,2.4521,2.4521,2.4521,2.4521,2.3383,2.3472,2.3519,2.3643,2.3706,2.3799,2.3847,2.3915,2.3981,2.4097,2.4172,2.4229,2.4314,2.4415,2.4499,2.4523,2.4555,2.4551,2.458,2.4553,2.4553,2.4553,2.4535,2.4557,2.4557,2.46,2.4601,2.4601]},{"header":{"parameterUnit":"m.s-1","parameterCategory":1,"la1":30.2991,"la2":30.254,"lo1":-89.0895,"lo2":-89.0444,"dy":0.0017,"dx":0.0017,"nx":28,"ny":28,"refTime":"2025-05-27T21:00:00:Z","depth":0,"parameterNumber":3,"parameterNumberName":"V-component_of_WINDS"},"data":[0,0,0,0,0,0,0,0,0,0,0,0,0,0,0,0,0,0,0,0,0,0,0,0,0,0,0,0,0,0,0,0,0,0,0,0,0,0,0,0,0,0,0,0,0,0,0,0,0,0,0,0,0,0,0,0,0,0,1.2478,1.2481,0,1.2785,1.2789,1.2792,1.2878,1.2876,1.2874,1.2872,1.3188,1.3197,1.3207,0,0,0,0,0,0,0,0,0,0,0,0,0,1.1968,1.1977,1.2478,1.2482,1.2486,1.2785,1.2789,1.2793,1.2878,1.2876,1.2874,1.2872,1.3184,1.3196,1.3208,0,0,0,0,0,0,0,0,0,0,0,0,0,1.2224,1.198,1.2477,1.2564,1.2575,1.2784,1.2789,1.2794,1.2878,1.2876,1.2873,1.2871,1.3181,1.3195,1.321,1.3355,0,0,1.3256,1.3262,0,0,0,0,0,0,0,0,1.2209,1.2242,1.2547,1.2558,1.2571,1.279,1.2725,1.2982,1.2879,1.2763,1.2872,1.2869,1.3058,1.3083,1.3146,1.337,1.3383,1.3257,1.3266,1.3273,1.3277,0,0,0,0,0,0,0,1.2191,1.223,1.2599,1.2552,1.2566,1.2589,1.2622,1.2774,1.2921,1.2773,1.278,1.2815,1.3064,1.3131,1.3154,1.3388,1.3257,1.327,1.3279,1.3285,1.3752,1.3755,0,0,0,0,0,0,1.2158,1.2214,1.259,1.2609,1.238,1.26,1.2637,1.2723,1.292,1.2947,1.2817,1.2818,1.3107,1.3136,1.3165,1.3354,1.3273,1.3287,1.3295,1.3749,1.3753,1.3757,0,0,0,0,0,0,1.2147,1.2191,1.2577,1.2414,1.2464,1.2611,1.2707,1.273,1.2798,1.2953,1.298,1.2859,1.3106,1.3144,1.3309,1.3366,1.3293,1.3307,1.3745,1.375,1.3755,1.3729,0,0,0,0,0,0,1.2132,1.2186,1.2242,1.2414,1.2473,1.2715,1.271,1.2738,1.2824,1.2828,1.3,1.3026,1.3107,1.3286,1.3323,1.3386,1.3319,1.3741,1.3747,1.3753,1.3725,1.3732,1.3738,0,0,0,0,0,1.2114,1.2221,1.2245,1.2289,1.2546,1.2718,1.2751,1.2842,1.2827,1.2886,1.2987,1.302,1.3352,1.3302,1.3345,1.3412,1.3737,1.3745,1.3753,1.3722,1.3731,1.3738,0,0,0,0,0,0,1.2052,1.2245,1.2273,1.244,1.2562,1.2732,1.2808,1.2847,1.2976,1.2975,1.3082,1.312,1.3279,1.3361,1.3301,1.3566,1.3546,1.3562,1.3508,1.3517,1.3523,1.3503,1.3331,0,0,0,0,0,1.2057,1.218,1.2343,1.2474,1.2534,1.266,1.2738,1.2798,1.2929,1.2981,1.3093,1.3219,1.3353,1.3438,1.3569,1.3735,1.3777,1.3803,1.3809,1.3814,1.3829,1.393,1.3945,1.3782,1.3782,1.3782,0,0,1.2071,1.2191,1.2262,1.2465,1.2566,1.2694,1.2703,1.2835,1.2932,1.3001,1.3166,1.3251,1.3399,1.3567,1.3646,1.3641,1.3883,1.3824,1.3826,1.384,1.3939,1.3955,1.3968,1.3787,1.3786,1.3785,0,0,1.2162,1.2262,1.2387,1.2489,1.2643,1.2726,1.2756,1.2921,1.2982,1.3147,1.3204,1.3319,1.3544,1.365,1.3733,1.3865,1.3904,1.3904,1.3941,1.4038,1.4051,1.4063,1.4117,1.4135,1.3917,1.3917,1.3917,0,1.2159,1.2353,1.2445,1.2578,1.2667,1.2735,1.2863,1.2957,1.3145,1.3207,1.3196,1.3485,1.3588,1.3785,1.3818,1.388,1.3921,1.3888,1.4041,1.4054,1.4067,1.412,1.414,1.3917,1.3917,1.3917,1.3917,0,1.2346,1.2479,1.256,1.2743,1.2841,1.297,1.3084,1.3171,1.3222,1.3307,1.3478,1.3604,1.3765,1.3814,1.3864,1.402,1.4012,1.4019,1.4003,1.4081,1.4133,1.4153,1.3917,1.3917,1.3917,1.3917,0,0,1.2409,1.2643,1.2672,1.2758,1.2934,1.3039,1.3172,1.333,1.3406,1.3532,1.3651,1.3841,1.3851,1.3945,1.4006,1.409,1.4196,1.4089,1.4094,1.4111,1.4383,1.4382,1.4403,1.4219,1.4223,1.4227,1.4373,0,1.2528,1.277,1.2858,1.3058,1.3185,1.3252,1.3368,1.349,1.3573,1.3694,1.3785,1.3921,1.392,1.3978,1.4063,1.4165,1.4253,1.4154,1.4335,1.434,1.4304,1.4429,1.4428,1.456,1.4393,1.4396,1.4399,0,1.2699,1.2832,1.3045,1.321,1.3266,1.337,1.3524,1.3637,1.3777,1.3832,1.3937,1.3995,1.4139,1.4108,1.4311,1.4242,1.4321,1.4381,1.4389,1.4415,1.438,1.4466,1.4603,1.4626,1.443,1.4428,1.4426,0,1.2734,1.2964,1.3124,1.3194,1.3388,1.346,1.3544,1.3681,1.3772,1.3905,1.3967,1.4114,1.4197,1.4311,1.4407,1.4374,1.4604,1.458,1.4658,1.4656,1.471,1.4706,1.4869,1.4747,1.4746,1.4746,1.4745,0,1.2862,1.2991,1.3143,1.3241,1.3389,1.3489,1.3633,1.3721,1.3843,1.3961,1.4024,1.4135,1.4252,1.4378,1.4453,1.4614,1.4648,1.47,1.472,1.4699,1.4694,1.4758,1.4754,1.4751,1.475,1.4749,1.4748,0,1.2928,1.3033,1.3213,1.3382,1.3428,1.353,1.3676,1.3776,1.386,1.401,1.4051,1.4185,1.4337,1.4443,1.4636,1.4688,1.4864,1.4879,1.4818,1.483,1.4905,1.49,1.5121,1.5158,1.5002,1.5004,1.5005,0,1.3006,1.3108,1.3289,1.3374,1.3459,1.3593,1.3687,1.3788,1.3883,1.4052,1.4132,1.4288,1.442,1.4659,1.4775,1.4925,1.4949,1.5015,1.4972,1.495,1.496,1.4956,1.497,1.5025,1.5026,1.5027,1.5027,0,1.3137,1.3185,1.3318,1.3471,1.3581,1.3705,1.3831,1.3896,1.4019,1.4123,1.4281,1.4382,1.4582,1.4738,1.49,1.4987,1.5031,1.5039,1.5067,1.5051,1.5015,1.5043,1.4845,1.5035,1.5035,1.5034,1.5034,1.5033,1.3217,1.3314,1.3458,1.3605,1.371,1.3826,1.3931,1.4029,1.4162,1.4334,1.4384,1.4549,1.469,1.4911,1.5001,1.5133,1.5129,1.5166,1.5178,1.5188,1.5192,1.4987,1.5161,1.5161,1.5161,1.5161,1.5161,0,1.3358,1.3454,1.3588,1.3764,1.388,1.3908,1.4049,1.4145,1.429,1.4417,1.4545,1.4728,1.488,1.5008,1.5166,1.5247,1.5272,1.5286,1.5285,1.5307,1.5182,1.5147,1.5265,1.5265,1.5265,1.5265,1.5264,1.5264,1.3445,1.3612,1.3678,1.3898,1.3994,1.4157,1.4236,1.4345,1.4448,1.465,1.4777,1.4859,1.4988,1.5157,1.5299,1.5333,1.5391,1.5403,1.5442,1.5326,1.5314,1.5303,1.5271,1.5413,1.5413,1.5557,1.5558,1.5559]}]]